Time,TemperatureF,DewpointF,PressureIn,WindDirection,WindDirectionDegrees,WindSpeedMPH,WindSpeedGustMPH,Humidity,HourlyPrecipIn,Conditions,Clouds,dailyrainin,SoftwareType,DateUTC
2013-05-15 00:05:00,45.5,40.3,28.81,SSE,157,0.0,0.0,82,0.00,,,0.00,VWS V14.01,2013-05-14 23:05:00,
2013-05-15 00:11:00,45.5,40.7,28.80,South,180,0.0,0.0,83,0.00,,,0.00,VWS V14.01,2013-05-14 23:11:00,
2013-05-15 00:17:00,45.3,40.1,28.78,SSW,202,0.0,0.0,82,0.00,,,0.00,VWS V14.01,2013-05-14 23:17:00,
2013-05-15 00:22:00,45.3,40.1,28.79,South,180,0.0,0.0,82,0.00,,,0.00,VWS V14.01,2013-05-14 23:22:00,
2013-05-15 00:28:00,45.3,39.8,28.78,South,180,0.0,0.0,81,0.00,,,0.00,VWS V14.01,2013-05-14 23:28:00,
2013-05-15 00:34:00,45.5,40.0,28.78,South,180,0.0,0.0,81,0.00,,,0.00,VWS V14.01,2013-05-14 23:34:00,
2013-05-15 00:40:00,45.5,40.0,28.78,SSE,157,0.0,0.0,81,0.00,,,0.00,VWS V14.01,2013-05-14 23:40:00,
2013-05-15 00:45:00,45.3,39.8,28.77,SSE,157,0.0,0.0,81,0.00,,,0.00,VWS V14.01,2013-05-14 23:45:00,
2013-05-15 00:51:00,45.1,39.6,28.77,NE,45,0.0,0.0,81,0.00,,,0.00,VWS V14.01,2013-05-14 23:51:00,
2013-05-15 00:57:00,45.1,39.9,28.77,NNE,22,0.0,0.0,82,0.00,,,0.00,VWS V14.01,2013-05-14 23:57:00,
2013-05-15 01:02:00,45.1,39.9,28.76,SSW,202,0.0,0.0,82,0.00,,,0.00,VWS V14.01,2013-05-15 00:02:00,
2013-05-15 01:08:00,45.0,40.2,28.76,SSE,157,0.0,0.0,83,0.00,,,0.00,VWS V14.01,2013-05-15 00:08:00,
2013-05-15 01:13:00,44.8,40.3,28.76,SSW,202,0.0,0.0,84,0.00,,,0.00,VWS V14.01,2013-05-15 00:13:00,
2013-05-15 01:19:00,44.6,40.1,28.75,South,180,0.0,0.0,84,0.00,,,0.00,VWS V14.01,2013-05-15 00:19:00,
2013-05-15 01:25:00,44.4,40.2,28.75,SSE,157,0.0,0.0,85,0.00,,,0.00,VWS V14.01,2013-05-15 00:25:00,
2013-05-15 01:30:00,44.1,40.2,28.74,SSW,202,0.0,0.0,86,0.00,,,0.00,VWS V14.01,2013-05-15 00:30:00,
2013-05-15 01:36:00,43.9,40.0,28.74,SSE,157,0.0,0.0,86,0.00,,,0.00,VWS V14.01,2013-05-15 00:36:00,
2013-05-15 01:42:00,44.1,39.9,28.74,South,180,0.0,0.0,85,0.00,,,0.00,VWS V14.01,2013-05-15 00:42:00,
2013-05-15 01:48:00,44.2,39.4,28.74,SSE,157,0.0,0.0,83,0.00,,,0.00,VWS V14.01,2013-05-15 00:48:00,
2013-05-15 01:54:00,44.2,39.1,28.74,SW,225,0.0,0.0,82,0.00,,,0.00,VWS V14.01,2013-05-15 00:54:00,
2013-05-15 01:59:00,44.2,39.1,28.75,SSW,202,0.0,0.0,82,0.00,,,0.00,VWS V14.01,2013-05-15 00:59:00,
2013-05-15 02:05:00,44.2,39.1,28.75,SW,225,0.0,0.0,82,0.00,,,0.00,VWS V14.01,2013-05-15 01:05:00,
2013-05-15 02:10:00,44.2,38.8,28.74,SSW,202,0.0,0.0,81,0.00,,,0.00,VWS V14.01,2013-05-15 01:10:00,
2013-05-15 02:15:00,44.2,38.8,28.74,South,180,0.0,0.0,81,0.00,,,0.00,VWS V14.01,2013-05-15 01:15:00,
2013-05-15 02:21:00,44.2,38.4,28.74,North,0,0.0,0.0,80,0.00,,,0.00,VWS V14.01,2013-05-15 01:21:00,
2013-05-15 02:26:00,44.2,38.4,28.74,SW,225,0.0,0.0,80,0.00,,,0.00,VWS V14.01,2013-05-15 01:26:00,
2013-05-15 02:31:00,44.2,38.4,28.74,SSE,157,0.0,0.0,80,0.00,,,0.00,VWS V14.01,2013-05-15 01:31:00,
2013-05-15 02:36:00,44.2,38.4,28.74,South,180,0.0,0.0,80,0.00,,,0.00,VWS V14.01,2013-05-15 01:36:00,
2013-05-15 02:41:00,44.2,38.4,28.74,North,0,0.0,0.0,80,0.00,,,0.00,VWS V14.01,2013-05-15 01:41:00,
2013-05-15 02:46:00,44.4,38.6,28.74,SW,225,0.0,0.0,80,0.00,,,0.00,VWS V14.01,2013-05-15 01:46:00,
2013-05-15 02:52:00,44.4,38.6,28.74,South,180,0.0,0.0,80,0.00,,,0.00,VWS V14.01,2013-05-15 01:52:00,
2013-05-15 02:58:00,44.6,39.1,28.74,South,180,0.0,0.0,81,0.00,,,0.00,VWS V14.01,2013-05-15 01:58:00,
2013-05-15 03:04:00,44.8,39.0,28.74,South,180,0.0,0.0,80,0.00,,,0.00,VWS V14.01,2013-05-15 02:04:00,
2013-05-15 03:09:00,44.8,39.0,28.74,SSE,157,0.0,0.0,80,0.00,,,0.00,VWS V14.01,2013-05-15 02:09:00,
2013-05-15 03:14:00,45.0,38.9,28.74,South,180,0.0,0.0,79,0.00,,,0.00,VWS V14.01,2013-05-15 02:14:00,
2013-05-15 03:20:00,44.8,38.7,28.75,SSW,202,0.0,0.0,79,0.00,,,0.00,VWS V14.01,2013-05-15 02:20:00,
2013-05-15 03:25:00,44.6,38.5,28.75,SW,225,0.0,0.0,79,0.00,,,0.00,VWS V14.01,2013-05-15 02:25:00,
2013-05-15 03:30:00,44.4,38.3,28.75,SSW,202,0.0,0.0,79,0.00,,,0.00,VWS V14.01,2013-05-15 02:30:00,
2013-05-15 03:35:00,44.2,38.1,28.75,SW,225,0.0,0.0,79,0.00,,,0.00,VWS V14.01,2013-05-15 02:35:00,
2013-05-15 03:40:00,44.2,38.1,28.75,SSE,157,0.0,0.0,79,0.00,,,0.00,VWS V14.01,2013-05-15 02:40:00,
2013-05-15 03:46:00,44.2,37.8,28.75,SW,225,0.0,0.0,78,0.00,,,0.00,VWS V14.01,2013-05-15 02:46:00,
2013-05-15 03:51:00,44.2,37.5,28.75,SW,225,0.0,0.0,77,0.00,,,0.00,VWS V14.01,2013-05-15 02:51:00,
2013-05-15 03:56:00,44.2,37.5,28.74,NNW,337,0.0,0.0,77,0.00,,,0.00,VWS V14.01,2013-05-15 02:56:00,
2013-05-15 04:02:00,44.1,37.4,28.76,SSW,202,0.0,0.0,77,0.00,,,0.00,VWS V14.01,2013-05-15 03:02:00,
2013-05-15 04:08:00,43.9,37.2,28.76,SSW,202,0.0,0.0,77,0.00,,,0.00,VWS V14.01,2013-05-15 03:08:00,
2013-05-15 04:14:00,43.9,37.2,28.76,South,180,0.0,0.0,77,0.00,,,0.00,VWS V14.01,2013-05-15 03:14:00,
2013-05-15 04:19:00,43.7,36.6,28.76,SSW,202,0.0,0.0,76,0.00,,,0.00,VWS V14.01,2013-05-15 03:19:00,
2013-05-15 04:24:00,43.5,36.8,28.76,South,180,0.0,0.0,77,0.00,,,0.00,VWS V14.01,2013-05-15 03:24:00,
2013-05-15 04:30:00,43.5,36.8,28.76,SSW,202,0.0,0.0,77,0.00,,,0.00,VWS V14.01,2013-05-15 03:30:00,
2013-05-15 04:36:00,43.7,37.0,28.77,SSW,202,0.0,0.0,77,0.00,,,0.00,VWS V14.01,2013-05-15 03:36:00,
2013-05-15 04:42:00,43.7,37.0,28.77,SSE,157,0.0,0.0,77,0.00,,,0.00,VWS V14.01,2013-05-15 03:42:00,
2013-05-15 04:48:00,43.7,37.0,28.77,SSW,202,0.0,0.0,77,0.00,,,0.00,VWS V14.01,2013-05-15 03:48:00,
2013-05-15 04:54:00,43.7,37.0,28.78,SSW,202,0.0,0.0,77,0.00,,,0.00,VWS V14.01,2013-05-15 03:54:00,
2013-05-15 05:00:00,43.7,36.6,28.78,SW,225,0.0,0.0,76,0.00,,,0.00,VWS V14.01,2013-05-15 04:00:00,
2013-05-15 05:02:00,43.7,36.3,28.78,SW,225,0.0,0.0,75,0.00,,,0.00,VWS V14.01,2013-05-15 04:02:00,
2013-05-15 05:05:00,43.7,36.3,28.79,SW,225,0.0,0.0,75,0.00,,,0.00,VWS V14.01,2013-05-15 04:05:00,
2013-05-15 05:06:00,43.7,36.3,28.78,SW,225,0.0,0.0,75,0.00,,,0.00,VWS V14.01,2013-05-15 04:06:00,
2013-05-15 05:09:00,43.7,36.3,28.78,North,0,0.0,0.0,75,0.00,,,0.00,VWS V14.01,2013-05-15 04:09:00,
2013-05-15 05:15:00,43.5,36.5,28.79,NNW,337,0.0,0.0,76,0.00,,,0.00,VWS V14.01,2013-05-15 04:15:00,
2013-05-15 05:17:00,43.3,36.3,28.78,SW,225,0.0,0.0,76,0.00,,,0.00,VWS V14.01,2013-05-15 04:17:00,
2013-05-15 05:22:00,43.0,36.3,28.79,SW,225,0.0,0.0,77,0.00,,,0.00,VWS V14.01,2013-05-15 04:22:00,
2013-05-15 05:28:00,43.0,36.3,28.79,SW,225,0.0,0.0,77,0.00,,,0.00,VWS V14.01,2013-05-15 04:28:00,
2013-05-15 05:33:00,43.0,36.6,28.79,SSW,202,0.0,0.0,78,0.00,,,0.00,VWS V14.01,2013-05-15 04:33:00,
2013-05-15 05:38:00,43.0,36.6,28.79,SW,225,0.0,0.0,78,0.00,,,0.00,VWS V14.01,2013-05-15 04:38:00,
2013-05-15 05:43:00,43.2,36.8,28.80,SW,225,0.0,0.0,78,0.00,,,0.00,VWS V14.01,2013-05-15 04:43:00,
2013-05-15 05:49:00,43.2,36.8,28.80,SW,225,0.0,0.0,78,0.00,,,0.00,VWS V14.01,2013-05-15 04:49:00,
2013-05-15 05:55:00,43.3,36.9,28.81,SSW,202,0.0,0.0,78,0.00,,,0.00,VWS V14.01,2013-05-15 04:55:00,
2013-05-15 06:00:00,43.5,36.8,28.80,SSW,202,0.0,0.0,77,0.00,,,0.00,VWS V14.01,2013-05-15 05:00:00,
2013-05-15 06:05:00,43.5,36.8,28.81,SSW,202,0.0,0.0,77,0.00,,,0.00,VWS V14.01,2013-05-15 05:05:00,
2013-05-15 06:11:00,43.7,36.6,28.81,SW,225,0.0,0.0,76,0.00,,,0.00,VWS V14.01,2013-05-15 05:11:00,
2013-05-15 06:17:00,43.9,36.5,28.82,SW,225,0.0,0.0,75,0.00,,,0.00,VWS V14.01,2013-05-15 05:17:00,
2013-05-15 06:23:00,43.9,36.5,28.82,SSW,202,0.0,0.0,75,0.00,,,0.00,VWS V14.01,2013-05-15 05:23:00,
2013-05-15 06:29:00,44.4,37.0,28.82,SSW,202,0.0,0.0,75,0.00,,,0.00,VWS V14.01,2013-05-15 05:29:00,
2013-05-15 06:34:00,44.2,36.5,28.83,SW,225,0.0,0.0,74,0.00,,,0.00,VWS V14.01,2013-05-15 05:34:00,
2013-05-15 06:40:00,44.4,37.0,28.83,SW,225,0.0,0.0,75,0.00,,,0.00,VWS V14.01,2013-05-15 05:40:00,
2013-05-15 06:46:00,44.2,36.8,28.83,SW,225,0.0,0.0,75,0.00,,,0.00,VWS V14.01,2013-05-15 05:46:00,
2013-05-15 06:52:00,44.2,36.8,28.83,SW,225,0.0,0.0,75,0.00,,,0.00,VWS V14.01,2013-05-15 05:52:00,
2013-05-15 06:57:00,44.2,36.8,28.83,SSW,202,0.0,0.0,75,0.00,,,0.00,VWS V14.01,2013-05-15 05:57:00,
2013-05-15 07:03:00,44.4,37.0,28.84,South,180,0.0,0.0,75,0.00,,,0.00,VWS V14.01,2013-05-15 06:03:00,
2013-05-15 07:09:00,44.4,37.0,28.84,North,0,0.0,0.0,75,0.00,,,0.00,VWS V14.01,2013-05-15 06:09:00,
2013-05-15 07:15:00,44.8,37.4,28.84,SW,225,0.0,0.0,75,0.00,,,0.00,VWS V14.01,2013-05-15 06:15:00,
2013-05-15 07:21:00,45.1,37.3,28.84,North,0,0.0,0.0,74,0.00,,,0.00,VWS V14.01,2013-05-15 06:21:00,
2013-05-15 07:26:00,45.3,37.2,28.84,North,0,0.0,0.0,73,0.00,,,0.00,VWS V14.01,2013-05-15 06:26:00,
2013-05-15 07:32:00,45.1,37.0,28.85,SSW,202,0.0,0.0,73,0.00,,,0.00,VWS V14.01,2013-05-15 06:32:00,
2013-05-15 07:38:00,45.0,37.2,28.84,SSW,202,0.0,0.0,74,0.00,,,0.00,VWS V14.01,2013-05-15 06:38:00,
2013-05-15 07:44:00,45.0,37.2,28.85,SSW,202,0.0,0.0,74,0.00,,,0.00,VWS V14.01,2013-05-15 06:44:00,
2013-05-15 07:49:00,45.1,37.3,28.85,SW,225,0.0,0.0,74,0.00,,,0.00,VWS V14.01,2013-05-15 06:49:00,
2013-05-15 07:55:00,45.1,37.3,28.86,SSW,202,0.0,0.0,74,0.00,,,0.00,VWS V14.01,2013-05-15 06:55:00,
2013-05-15 08:01:00,45.3,37.5,28.86,SW,225,0.0,0.0,74,0.00,,,0.00,VWS V14.01,2013-05-15 07:01:00,
2013-05-15 08:07:00,45.7,37.5,28.85,SW,225,0.0,0.0,73,0.00,,,0.00,VWS V14.01,2013-05-15 07:07:00,
2013-05-15 08:13:00,45.7,37.5,28.86,South,180,0.0,0.0,73,0.00,,,0.00,VWS V14.01,2013-05-15 07:13:00,
2013-05-15 08:18:00,45.7,37.5,28.86,SW,225,0.0,0.0,73,0.00,,,0.00,VWS V14.01,2013-05-15 07:18:00,
2013-05-15 08:23:00,45.7,37.2,28.87,South,180,0.0,0.0,72,0.00,,,0.00,VWS V14.01,2013-05-15 07:23:00,
2013-05-15 08:28:00,45.5,37.4,28.87,South,180,0.0,0.0,73,0.00,,,0.00,VWS V14.01,2013-05-15 07:28:00,
2013-05-15 08:34:00,45.3,36.8,28.87,SW,225,0.0,0.0,72,0.00,,,0.00,VWS V14.01,2013-05-15 07:34:00,
2013-05-15 08:39:00,45.3,37.2,28.87,North,0,0.0,0.0,73,0.00,,,0.00,VWS V14.01,2013-05-15 07:39:00,
2013-05-15 08:44:00,45.3,37.2,28.87,SW,225,0.0,0.0,73,0.00,,,0.00,VWS V14.01,2013-05-15 07:44:00,
2013-05-15 08:50:00,45.3,37.2,28.88,SW,225,0.0,0.0,73,0.00,,,0.00,VWS V14.01,2013-05-15 07:50:00,
2013-05-15 08:56:00,45.3,37.2,28.88,SW,225,0.0,0.0,73,0.00,,,0.00,VWS V14.01,2013-05-15 07:56:00,
2013-05-15 09:02:00,45.3,37.2,28.88,SSW,202,0.0,0.0,73,0.00,,,0.00,VWS V14.01,2013-05-15 08:02:00,
2013-05-15 09:07:00,45.3,37.2,28.88,SW,225,0.0,0.0,73,0.00,,,0.00,VWS V14.01,2013-05-15 08:07:00,
2013-05-15 09:13:00,45.3,37.5,28.88,North,0,0.0,0.0,74,0.00,,,0.00,VWS V14.01,2013-05-15 08:13:00,
2013-05-15 09:18:00,45.3,37.5,28.89,SW,225,0.0,0.0,74,0.00,,,0.00,VWS V14.01,2013-05-15 08:18:00,
2013-05-15 09:24:00,45.9,37.8,28.89,SW,225,0.0,0.0,73,0.00,,,0.00,VWS V14.01,2013-05-15 08:24:00,
2013-05-15 09:29:00,46.2,37.7,28.89,North,0,0.0,0.0,72,0.00,,,0.00,VWS V14.01,2013-05-15 08:29:00,
2013-05-15 09:35:00,46.6,37.7,28.89,South,180,0.0,0.0,71,0.00,,,0.00,VWS V14.01,2013-05-15 08:35:00,
2013-05-15 09:40:00,46.8,37.9,28.90,SSW,202,0.0,0.0,71,0.00,,,0.00,VWS V14.01,2013-05-15 08:40:00,
2013-05-15 09:46:00,46.6,37.3,28.90,NNW,337,0.0,0.0,70,0.00,,,0.00,VWS V14.01,2013-05-15 08:46:00,
2013-05-15 09:52:00,46.6,37.3,28.90,SW,225,0.0,0.0,70,0.00,,,0.00,VWS V14.01,2013-05-15 08:52:00,
2013-05-15 09:58:00,46.2,37.0,28.90,North,0,0.0,0.0,70,0.00,,,0.00,VWS V14.01,2013-05-15 08:58:00,
2013-05-15 10:03:00,46.2,37.3,28.90,SW,225,0.0,0.0,71,0.00,,,0.00,VWS V14.01,2013-05-15 09:03:00,
2013-05-15 10:09:00,46.6,37.3,28.91,SW,225,0.0,0.0,70,0.00,,,0.00,VWS V14.01,2013-05-15 09:09:00,
2013-05-15 10:15:00,46.6,37.3,28.92,SW,225,0.0,0.0,70,0.00,,,0.00,VWS V14.01,2013-05-15 09:15:00,
2013-05-15 10:21:00,46.6,37.7,28.92,NNW,337,0.0,0.0,71,0.00,,,0.00,VWS V14.01,2013-05-15 09:21:00,
2013-05-15 10:27:00,46.9,38.0,28.92,SW,225,0.0,0.0,71,0.00,,,0.00,VWS V14.01,2013-05-15 09:27:00,
2013-05-15 10:33:00,47.5,38.2,28.92,SSW,202,0.0,0.0,70,0.00,,,0.00,VWS V14.01,2013-05-15 09:33:00,
2013-05-15 10:39:00,48.7,39.0,28.92,SSW,202,0.0,0.0,69,0.00,,,0.00,VWS V14.01,2013-05-15 09:39:00,
2013-05-15 10:45:00,50.2,39.7,28.92,SW,225,0.0,0.0,67,0.00,,,0.00,VWS V14.01,2013-05-15 09:45:00,
2013-05-15 10:51:00,50.5,39.2,28.92,SW,225,0.0,0.0,65,0.00,,,0.00,VWS V14.01,2013-05-15 09:51:00,
2013-05-15 10:57:00,49.8,38.5,28.93,South,180,0.0,0.0,65,0.00,,,0.00,VWS V14.01,2013-05-15 09:57:00,
2013-05-15 11:03:00,49.1,38.2,28.93,SSW,202,0.0,0.0,66,0.00,,,0.00,VWS V14.01,2013-05-15 10:03:00,
2013-05-15 11:08:00,49.3,38.4,28.94,SW,225,0.0,0.0,66,0.00,,,0.00,VWS V14.01,2013-05-15 10:08:00,
2013-05-15 11:13:00,49.8,38.9,28.94,SW,225,0.0,0.0,66,0.00,,,0.00,VWS V14.01,2013-05-15 10:13:00,
2013-05-15 11:19:00,49.8,38.5,28.94,SW,225,0.0,0.0,65,0.00,,,0.00,VWS V14.01,2013-05-15 10:19:00,
2013-05-15 11:24:00,49.8,38.9,28.94,SW,225,0.0,0.0,66,0.00,,,0.00,VWS V14.01,2013-05-15 10:24:00,
2013-05-15 11:29:00,50.7,39.4,28.94,SW,225,0.0,0.0,65,0.00,,,0.00,VWS V14.01,2013-05-15 10:29:00,
2013-05-15 11:34:00,51.6,39.8,28.94,North,0,0.0,0.0,64,0.00,,,0.00,VWS V14.01,2013-05-15 10:34:00,
2013-05-15 11:40:00,51.1,39.4,28.95,SW,225,0.0,0.0,64,0.00,,,0.00,VWS V14.01,2013-05-15 10:40:00,
2013-05-15 11:45:00,50.7,39.4,28.95,SSW,202,0.0,0.0,65,0.00,,,0.00,VWS V14.01,2013-05-15 10:45:00,
2013-05-15 11:50:00,50.5,39.2,28.95,SSE,157,0.0,0.0,65,0.00,,,0.00,VWS V14.01,2013-05-15 10:50:00,
2013-05-15 11:56:00,51.4,40.0,28.96,SW,225,0.0,0.0,65,0.00,,,0.00,VWS V14.01,2013-05-15 10:56:00,
2013-05-15 12:02:00,52.2,40.0,28.96,North,0,0.0,0.0,63,0.00,,,0.00,VWS V14.01,2013-05-15 11:02:00,
2013-05-15 12:07:00,51.6,39.4,28.96,SSW,202,0.0,0.0,63,0.00,,,0.00,VWS V14.01,2013-05-15 11:07:00,
2013-05-15 12:13:00,50.5,39.6,28.96,SW,225,0.0,0.0,66,0.00,,,0.00,VWS V14.01,2013-05-15 11:13:00,
2013-05-15 12:19:00,50.5,40.0,28.96,NNW,337,0.0,0.0,67,0.00,,,0.00,VWS V14.01,2013-05-15 11:19:00,
2013-05-15 12:24:00,51.4,40.4,28.97,SW,225,0.0,0.0,66,0.00,,,0.00,VWS V14.01,2013-05-15 11:24:00,
2013-05-15 12:29:00,51.4,40.0,28.97,SSW,202,0.0,0.0,65,0.00,,,0.00,VWS V14.01,2013-05-15 11:29:00,
2013-05-15 12:35:00,51.8,40.4,28.98,SW,225,0.0,0.0,65,0.00,,,0.00,VWS V14.01,2013-05-15 11:35:00,
2013-05-15 12:40:00,52.5,40.3,28.97,SW,225,0.0,0.0,63,0.00,,,0.00,VWS V14.01,2013-05-15 11:40:00,
2013-05-15 12:45:00,53.2,41.0,28.97,SSE,157,0.0,0.0,63,0.00,,,0.00,VWS V14.01,2013-05-15 11:45:00,
2013-05-15 12:51:00,52.5,40.3,28.98,SSW,202,0.0,0.0,63,0.00,,,0.00,VWS V14.01,2013-05-15 11:51:00,
2013-05-15 12:57:00,52.3,40.9,28.98,SSW,202,0.0,0.0,65,0.00,,,0.00,VWS V14.01,2013-05-15 11:57:00,
2013-05-15 13:02:00,52.3,40.9,28.98,SSW,202,0.0,0.0,65,0.00,,,0.00,VWS V14.01,2013-05-15 12:02:00,
2013-05-15 13:08:00,52.3,41.3,29.00,North,0,0.0,0.0,66,0.00,,,0.00,VWS V14.01,2013-05-15 12:08:00,
2013-05-15 13:13:00,52.3,41.3,28.99,SSW,202,0.0,0.0,66,0.00,,,0.00,VWS V14.01,2013-05-15 12:13:00,
2013-05-15 13:18:00,53.2,41.8,29.00,SW,225,0.0,0.0,65,0.00,,,0.00,VWS V14.01,2013-05-15 12:18:00,
2013-05-15 13:23:00,53.4,41.5,29.00,SSW,202,0.0,0.0,64,0.00,,,0.00,VWS V14.01,2013-05-15 12:23:00,
2013-05-15 13:29:00,54.3,42.0,29.00,SW,225,0.0,0.0,63,0.00,,,0.00,VWS V14.01,2013-05-15 12:29:00,
2013-05-15 13:35:00,54.1,41.8,29.00,SW,225,0.0,0.0,63,0.00,,,0.00,VWS V14.01,2013-05-15 12:35:00,
2013-05-15 13:41:00,54.1,42.2,29.00,SSW,202,0.0,0.0,64,0.00,,,0.00,VWS V14.01,2013-05-15 12:41:00,
2013-05-15 13:46:00,54.1,41.8,29.01,North,0,0.0,0.0,63,0.00,,,0.00,VWS V14.01,2013-05-15 12:46:00,
2013-05-15 13:52:00,54.3,42.0,29.01,SW,225,0.0,0.0,63,0.00,,,0.00,VWS V14.01,2013-05-15 12:52:00,
2013-05-15 13:58:00,54.7,42.0,29.01,North,0,0.0,0.0,62,0.00,,,0.00,VWS V14.01,2013-05-15 12:58:00,
2013-05-15 14:04:00,55.6,42.4,29.01,SW,225,0.0,0.0,61,0.00,,,0.00,VWS V14.01,2013-05-15 13:04:00,
2013-05-15 14:09:00,56.3,43.0,29.01,SSW,202,0.0,0.0,61,0.00,,,0.00,VWS V14.01,2013-05-15 13:09:00,
2013-05-15 14:14:00,57.0,43.3,29.01,SSW,202,0.0,0.0,60,0.00,,,0.00,VWS V14.01,2013-05-15 13:14:00,
2013-05-15 14:19:00,57.9,43.2,29.02,SSW,202,0.0,0.0,58,0.00,,,0.00,VWS V14.01,2013-05-15 13:19:00,
2013-05-15 14:24:00,57.7,42.6,29.02,SSW,202,0.0,0.0,57,0.00,,,0.00,VWS V14.01,2013-05-15 13:24:00,
2013-05-15 14:30:00,57.4,42.8,29.02,NNW,337,0.0,0.0,58,0.00,,,0.00,VWS V14.01,2013-05-15 13:30:00,
2013-05-15 14:36:00,57.4,41.8,29.03,SSW,202,0.0,0.0,56,0.00,,,0.00,VWS V14.01,2013-05-15 13:36:00,
2013-05-15 14:41:00,57.7,41.2,29.03,North,0,0.0,0.0,54,0.00,,,0.00,VWS V14.01,2013-05-15 13:41:00,
2013-05-15 14:47:00,57.4,40.4,29.03,SW,225,0.0,0.0,53,0.00,,,0.00,VWS V14.01,2013-05-15 13:47:00,
2013-05-15 14:53:00,57.4,40.9,29.03,SSW,202,0.0,0.0,54,0.00,,,0.00,VWS V14.01,2013-05-15 13:53:00,
2013-05-15 14:59:00,57.7,41.2,29.03,SSW,202,0.0,0.0,54,0.00,,,0.00,VWS V14.01,2013-05-15 13:59:00,
2013-05-15 15:05:00,58.6,40.5,29.03,North,0,0.0,0.0,51,0.00,,,0.00,VWS V14.01,2013-05-15 14:05:00,
2013-05-15 15:11:00,59.4,40.8,29.04,SW,225,0.0,0.0,50,0.00,,,0.00,VWS V14.01,2013-05-15 14:11:00,
2013-05-15 15:16:00,59.4,39.7,29.03,SW,225,0.0,0.0,48,0.00,,,0.00,VWS V14.01,2013-05-15 14:16:00,
2013-05-15 15:21:00,59.5,39.3,29.04,North,0,0.0,0.0,47,0.00,,,0.00,VWS V14.01,2013-05-15 14:21:00,
2013-05-15 15:26:00,60.4,39.0,29.04,SW,225,0.0,0.0,45,0.00,,,0.00,VWS V14.01,2013-05-15 14:26:00,
2013-05-15 15:32:00,59.9,39.1,29.04,South,180,0.0,0.0,46,0.00,,,0.00,VWS V14.01,2013-05-15 14:32:00,
2013-05-15 15:37:00,60.4,40.1,29.04,SSW,202,0.0,0.0,47,0.00,,,0.00,VWS V14.01,2013-05-15 14:37:00,
2013-05-15 15:43:00,60.1,39.3,29.04,North,0,0.0,0.0,46,0.00,,,0.00,VWS V14.01,2013-05-15 14:43:00,
2013-05-15 15:48:00,59.9,39.1,29.04,NNW,337,0.0,0.0,46,0.00,,,0.00,VWS V14.01,2013-05-15 14:48:00,
2013-05-15 15:54:00,60.1,38.7,29.05,SSW,202,0.0,0.0,45,0.00,,,0.00,VWS V14.01,2013-05-15 14:54:00,
2013-05-15 16:00:00,60.6,38.6,29.05,SSW,202,0.0,0.0,44,0.00,,,0.00,VWS V14.01,2013-05-15 15:00:00,
2013-05-15 16:06:00,60.3,38.9,29.05,SSW,202,0.0,0.0,45,0.00,,,0.00,VWS V14.01,2013-05-15 15:06:00,
2013-05-15 16:11:00,60.6,38.0,29.05,SSW,202,0.0,0.0,43,0.00,,,0.00,VWS V14.01,2013-05-15 15:11:00,
2013-05-15 16:17:00,60.4,38.4,29.05,SSW,202,0.0,0.0,44,0.00,,,0.00,VWS V14.01,2013-05-15 15:17:00,
2013-05-15 16:23:00,59.7,37.2,29.05,SW,225,0.0,0.0,43,0.00,,,0.00,VWS V14.01,2013-05-15 15:23:00,
2013-05-15 16:30:00,59.4,38.1,29.05,SSW,202,0.0,0.0,45,0.00,,,0.00,VWS V14.01,2013-05-15 15:30:00,
2013-05-15 16:36:00,59.9,38.0,29.06,SSW,202,0.0,0.0,44,0.00,,,0.00,VWS V14.01,2013-05-15 15:36:00,
2013-05-15 16:41:00,60.4,37.8,29.06,SW,225,0.0,0.0,43,0.00,,,0.00,VWS V14.01,2013-05-15 15:41:00,
2013-05-15 16:47:00,60.6,38.0,29.06,SW,225,0.0,0.0,43,0.00,,,0.00,VWS V14.01,2013-05-15 15:47:00,
2013-05-15 16:52:00,61.3,38.6,29.05,North,0,0.0,0.0,43,0.00,,,0.00,VWS V14.01,2013-05-15 15:52:00,
2013-05-15 16:58:00,61.5,38.2,29.06,North,0,0.0,0.0,42,0.00,,,0.00,VWS V14.01,2013-05-15 15:58:00,
2013-05-15 17:03:00,62.4,39.6,29.06,SSW,202,0.0,0.0,43,0.00,,,0.00,VWS V14.01,2013-05-15 16:03:00,
2013-05-15 17:08:00,61.9,38.6,29.06,SSW,202,0.0,0.0,42,0.00,,,0.00,VWS V14.01,2013-05-15 16:08:00,
2013-05-15 17:14:00,60.6,38.0,29.06,SSW,202,0.0,0.0,43,0.00,,,0.00,VWS V14.01,2013-05-15 16:14:00,
2013-05-15 17:19:00,60.1,38.1,29.07,SSW,202,0.0,0.0,44,0.00,,,0.00,VWS V14.01,2013-05-15 16:19:00,
2013-05-15 17:24:00,61.0,39.0,29.07,SSW,202,0.0,0.0,44,0.00,,,0.00,VWS V14.01,2013-05-15 16:24:00,
2013-05-15 17:30:00,65.5,41.2,29.07,SSW,202,0.0,0.0,41,0.00,,,0.00,VWS V14.01,2013-05-15 16:30:00,
2013-05-15 17:35:00,69.1,42.5,29.07,SW,225,0.0,0.0,38,0.00,,,0.00,VWS V14.01,2013-05-15 16:35:00,
2013-05-15 17:41:00,71.2,42.2,29.07,SSW,202,0.0,3.8,35,0.00,,,0.00,VWS V14.01,2013-05-15 16:41:00,
2013-05-15 17:47:00,68.0,40.1,29.07,SSW,202,0.0,2.7,36,0.00,,,0.00,VWS V14.01,2013-05-15 16:47:00,
2013-05-15 17:52:00,64.6,39.8,29.07,SSW,202,0.0,0.0,40,0.00,,,0.00,VWS V14.01,2013-05-15 16:52:00,
2013-05-15 17:58:00,62.1,38.8,29.07,SW,225,0.0,0.0,42,0.00,,,0.00,VWS V14.01,2013-05-15 16:58:00,
2013-05-15 18:03:00,60.6,38.6,29.07,South,180,0.0,2.0,44,0.00,,,0.00,VWS V14.01,2013-05-15 17:03:00,
2013-05-15 18:09:00,59.2,42.6,29.08,North,0,7.6,7.6,54,0.00,,,0.00,VWS V14.01,2013-05-15 17:09:00,
2013-05-15 18:14:00,56.5,42.4,29.08,SSW,202,0.0,0.0,59,0.02,,,0.02,VWS V14.01,2013-05-15 17:14:00,
2013-05-15 18:20:00,59.5,46.1,29.08,SSW,202,0.0,0.0,61,0.02,,,0.02,VWS V14.01,2013-05-15 17:20:00,
2013-05-15 18:26:00,65.5,47.4,29.08,SSW,202,0.0,0.4,52,0.02,,,0.02,VWS V14.01,2013-05-15 17:26:00,
2013-05-15 18:32:00,65.3,44.0,29.08,SSW,202,0.0,4.3,46,0.02,,,0.02,VWS V14.01,2013-05-15 17:32:00,
2013-05-15 18:38:00,65.8,43.9,29.08,WNW,292,3.4,5.6,45,0.02,,,0.02,VWS V14.01,2013-05-15 17:38:00,
2013-05-15 18:44:00,65.1,43.8,29.08,SW,225,0.0,0.0,46,0.02,,,0.02,VWS V14.01,2013-05-15 17:44:00,
2013-05-15 18:50:00,66.0,44.1,29.08,SSW,202,0.0,0.0,45,0.02,,,0.02,VWS V14.01,2013-05-15 17:50:00,
2013-05-15 18:56:00,66.4,42.6,29.09,SSW,202,0.0,0.0,42,0.02,,,0.02,VWS V14.01,2013-05-15 17:56:00,
2013-05-15 19:02:00,63.3,41.0,29.09,SSW,202,0.0,0.0,44,0.02,,,0.02,VWS V14.01,2013-05-15 18:02:00,
2013-05-15 19:08:00,64.8,43.6,29.09,South,180,0.0,0.0,46,0.02,,,0.02,VWS V14.01,2013-05-15 18:08:00,
2013-05-15 19:13:00,64.0,43.4,29.09,South,180,3.6,6.7,47,0.00,,,0.02,VWS V14.01,2013-05-15 18:13:00,
2013-05-15 19:19:00,61.3,42.5,29.09,South,180,4.0,4.3,50,0.00,,,0.02,VWS V14.01,2013-05-15 18:19:00,
2013-05-15 19:24:00,58.8,41.7,29.09,South,180,0.7,8.1,53,0.00,,,0.02,VWS V14.01,2013-05-15 18:24:00,
2013-05-15 19:30:00,56.7,41.7,29.09,SSE,157,2.7,11.4,57,0.00,,,0.02,VWS V14.01,2013-05-15 18:30:00,
2013-05-15 19:36:00,56.1,41.5,29.09,South,180,2.7,11.9,58,0.00,,,0.02,VWS V14.01,2013-05-15 18:36:00,
2013-05-15 19:41:00,55.6,41.5,29.10,South,180,0.0,2.7,59,0.00,,,0.02,VWS V14.01,2013-05-15 18:41:00,
2013-05-15 19:47:00,54.7,41.1,29.10,SW,225,3.6,5.4,60,0.00,,,0.02,VWS V14.01,2013-05-15 18:47:00,
2013-05-15 19:53:00,54.0,40.4,29.10,South,180,1.1,2.9,60,0.00,,,0.02,VWS V14.01,2013-05-15 18:53:00,
2013-05-15 19:59:00,53.2,40.5,29.10,SSW,202,0.0,6.5,62,0.00,,,0.02,VWS V14.01,2013-05-15 18:59:00,
2013-05-15 20:05:00,53.1,40.8,29.10,SSE,157,5.4,5.4,63,0.00,,,0.02,VWS V14.01,2013-05-15 19:05:00,
2013-05-15 20:11:00,53.2,41.0,29.10,SSE,157,0.0,4.3,63,0.00,,,0.02,VWS V14.01,2013-05-15 19:11:00,
2013-05-15 20:16:00,53.2,40.5,29.10,SSW,202,0.0,4.0,62,0.00,,,0.02,VWS V14.01,2013-05-15 19:16:00,
2013-05-15 20:22:00,52.7,40.5,29.11,South,180,4.0,6.3,63,0.00,,,0.02,VWS V14.01,2013-05-15 19:22:00,
2013-05-15 20:27:00,52.3,40.5,29.11,SSE,157,0.0,5.6,64,0.00,,,0.02,VWS V14.01,2013-05-15 19:27:00,
2013-05-15 20:33:00,51.1,39.8,29.11,South,180,0.0,6.3,65,0.00,,,0.02,VWS V14.01,2013-05-15 19:33:00,
2013-05-15 20:39:00,50.4,39.9,29.12,SSW,202,2.9,4.7,67,0.00,,,0.02,VWS V14.01,2013-05-15 19:39:00,
2013-05-15 20:45:00,49.8,39.7,29.12,South,180,0.0,5.6,68,0.00,,,0.02,VWS V14.01,2013-05-15 19:45:00,
2013-05-15 20:50:00,49.3,39.6,29.11,South,180,5.6,5.6,69,0.00,,,0.02,VWS V14.01,2013-05-15 19:50:00,
2013-05-15 20:55:00,48.9,39.9,29.11,South,180,0.0,5.1,71,0.00,,,0.02,VWS V14.01,2013-05-15 19:55:00,
2013-05-15 21:01:00,48.7,39.7,29.12,SSE,157,0.0,0.0,71,0.00,,,0.02,VWS V14.01,2013-05-15 20:01:00,
2013-05-15 21:07:00,48.4,39.8,29.12,SSW,202,0.0,0.0,72,0.00,,,0.02,VWS V14.01,2013-05-15 20:07:00,
2013-05-15 21:13:00,48.0,39.8,29.12,South,180,0.0,3.8,73,0.00,,,0.02,VWS V14.01,2013-05-15 20:13:00,
2013-05-15 21:19:00,48.0,40.1,29.13,South,180,5.1,7.6,74,0.00,,,0.02,VWS V14.01,2013-05-15 20:19:00,
2013-05-15 21:24:00,48.0,40.1,29.13,South,180,0.0,1.6,74,0.00,,,0.02,VWS V14.01,2013-05-15 20:24:00,
2013-05-15 21:30:00,48.0,40.5,29.13,South,180,0.0,3.8,75,0.00,,,0.02,VWS V14.01,2013-05-15 20:30:00,
2013-05-15 21:36:00,47.8,40.6,29.13,NNW,337,0.0,0.0,76,0.00,,,0.02,VWS V14.01,2013-05-15 20:36:00,
2013-05-15 21:42:00,47.5,40.3,29.14,SSW,202,0.0,5.1,76,0.00,,,0.02,VWS V14.01,2013-05-15 20:42:00,
2013-05-15 21:48:00,47.5,40.3,29.14,South,180,0.0,8.7,76,0.00,,,0.02,VWS V14.01,2013-05-15 20:48:00,
2013-05-15 21:54:00,47.3,40.5,29.14,SSW,202,0.0,5.1,77,0.00,,,0.02,VWS V14.01,2013-05-15 20:54:00,
2013-05-15 21:59:00,47.1,40.3,29.13,SW,225,0.0,0.0,77,0.00,,,0.02,VWS V14.01,2013-05-15 20:59:00,
2013-05-15 22:05:00,47.1,40.3,29.14,SW,225,5.6,5.6,77,0.00,,,0.02,VWS V14.01,2013-05-15 21:05:00,
2013-05-15 22:11:00,47.3,39.8,29.14,North,0,5.1,8.5,75,0.00,,,0.02,VWS V14.01,2013-05-15 21:11:00,
2013-05-15 22:16:00,47.7,39.1,29.14,SSW,202,0.0,5.4,72,0.00,,,0.02,VWS V14.01,2013-05-15 21:16:00,
2013-05-15 22:22:00,48.0,38.7,29.14,SW,225,0.0,1.3,70,0.00,,,0.02,VWS V14.01,2013-05-15 21:22:00,
2013-05-15 22:27:00,47.8,38.5,29.13,SSW,202,0.0,0.0,70,0.00,,,0.02,VWS V14.01,2013-05-15 21:27:00,
2013-05-15 22:32:00,47.7,38.4,29.13,North,0,0.0,0.0,70,0.00,,,0.02,VWS V14.01,2013-05-15 21:32:00,
2013-05-15 22:38:00,47.1,38.2,29.13,NNW,337,0.0,0.0,71,0.00,,,0.02,VWS V14.01,2013-05-15 21:38:00,
2013-05-15 22:44:00,46.6,38.4,29.14,South,180,0.0,0.0,73,0.00,,,0.02,VWS V14.01,2013-05-15 21:44:00,
2013-05-15 22:49:00,46.2,38.4,29.14,South,180,0.0,0.0,74,0.00,,,0.02,VWS V14.01,2013-05-15 21:49:00,
2013-05-15 22:54:00,46.0,38.5,29.14,South,180,0.0,0.0,75,0.00,,,0.02,VWS V14.01,2013-05-15 21:54:00,
2013-05-15 23:00:00,45.7,38.6,29.14,South,180,0.0,0.0,76,0.00,,,0.02,VWS V14.01,2013-05-15 22:00:00,
2013-05-15 23:06:00,45.1,38.0,29.13,South,180,0.0,0.0,76,0.00,,,0.02,VWS V14.01,2013-05-15 22:06:00,
2013-05-15 23:11:00,45.0,38.2,29.13,South,180,0.0,0.0,77,0.00,,,0.02,VWS V14.01,2013-05-15 22:11:00,
2013-05-15 23:17:00,44.8,38.4,29.13,South,180,0.0,1.6,78,0.00,,,0.02,VWS V14.01,2013-05-15 22:17:00,
2013-05-15 23:22:00,44.4,38.3,29.13,South,180,0.0,0.0,79,0.00,,,0.02,VWS V14.01,2013-05-15 22:22:00,
2013-05-15 23:27:00,44.2,38.1,29.13,South,180,0.0,0.0,79,0.00,,,0.02,VWS V14.01,2013-05-15 22:27:00,
2013-05-15 23:33:00,43.9,37.8,29.13,South,180,0.0,0.0,79,0.00,,,0.02,VWS V14.01,2013-05-15 22:33:00,
2013-05-15 23:38:00,43.5,37.8,29.13,South,180,0.0,0.0,80,0.00,,,0.02,VWS V14.01,2013-05-15 22:38:00,
2013-05-15 23:44:00,43.3,37.9,29.13,South,180,0.0,0.0,81,0.00,,,0.02,VWS V14.01,2013-05-15 22:44:00,
2013-05-15 23:49:00,43.0,37.6,29.13,South,180,0.0,0.0,81,0.00,,,0.02,VWS V14.01,2013-05-15 22:49:00,
2013-05-15 23:55:00,42.6,37.2,29.13,South,180,0.0,0.0,81,0.00,,,0.02,VWS V14.01,2013-05-15 22:55:00,